Weather History for KWVI - September, 2011

Change the Weather History Date:

Monday, September 12, 2011

  Actual Average Record
Temperature  
Mean Temperature 67 °F 64 °F  
Max Temperature 78 °F 76 °F 91 °F (2006)
Min Temperature 55 °F 52 °F 44 °F (2005)
Degree Days  
Heating Degree Days 0    
Month to date heating degree days 33  
Since 1 July heating degree days 181  
Cooling Degree Days 2    
Month to date cooling degree days 7  
Year to date cooling degree days 42  
Growing Degree Days 16 (Base 50)    
Moisture  
Dew Point 55 °F    
Average Humidity 70    
Maximum Humidity 93    
Minimum Humidity 47    
Precipitation  
Precipitation 0.00 in - 0.00 in (2015)
Month to date precipitation 0.01  
Year to date precipitation 18.32  
Since 1 July precipitation 0.14  
Sea Level Pressure  
Sea Level Pressure 30.06 in    
Wind  
Wind Speed 4 mph (SSW)    
Max Wind Speed 10 mph    
Max Gust Speed 15 mph    
Visibility 10 miles    
Events      
T = Trace of Precipitation, MM = Missing Value Source: NWS Daily Summary

Daily Weather History Graph

Daily Weather History Graph

Search for Another Location

Airport or City:

Trip Planner

Search our weather history database for the weather conditions in past years. The results will help you decide how hot, cold, wet, or windy it might be!

Date:

Astronomy

Sep. 12, 2011 Rise Set
Actual Time 6:46 AM PDT 7:19 PM PDT
Civil Twilight 6:20 AM PDT 7:45 PM PDT
Nautical Twilight 5:49 AM PDT 8:16 PM PDT
Astronomical Twilight 5:18 AM PDT 8:47 PM PDT
Moon 7:13 PM PDT (9/12) 7:06 AM PDT (9/12)
Length of Visible Light 13h 24m
Length of Day
12h 32m
Full, 100% of the Moon is Illuminated
Sep 12
Full
Sep 20
Last Quarter
Sep 27
New
Oct 3
First Quarter
Oct 11
Full

Hourly Weather History & Observations

Time (PDT) Temp. Dew Point Humidity Pressure Visibility Wind Dir Wind Speed Gust Speed Precip Events Conditions
12:53 AM 57.9 °F 53.1 °F 84% 30.03 in 10.0 mi Calm Calm - N/A   Unknown
1:53 AM 57.0 °F 53.1 °F 87% 30.04 in 10.0 mi NW 3.5 mph - N/A   Unknown
2:53 AM 57.0 °F 53.1 °F 87% 30.05 in 10.0 mi NW 3.5 mph - N/A   Unknown
3:53 AM 55.9 °F 53.1 °F 90% 30.05 in 10.0 mi Calm Calm - N/A   Unknown
4:53 AM 55.9 °F 53.1 °F 90% 30.05 in 10.0 mi NNW 3.5 mph - N/A   Unknown
5:53 AM 55.9 °F 53.1 °F 90% 30.05 in 10.0 mi NNW 3.5 mph - N/A   Unknown
6:53 AM 55.9 °F 52.0 °F 87% 30.06 in 10.0 mi WNW 4.6 mph - N/A   Unknown
7:53 AM 59.0 °F 54.0 °F 83% 30.07 in 10.0 mi Calm Calm - N/A   Unknown
9:53 AM 68.0 °F 55.9 °F 65% 30.08 in 10.0 mi Calm Calm - N/A   Unknown
10:53 AM 73.0 °F 57.0 °F 57% 30.08 in 10.0 mi South 5.8 mph - N/A   Unknown
12:53 PM 75.0 °F 55.9 °F 51% 30.07 in 10.0 mi South 6.9 mph - N/A   Unknown
1:53 PM 75.0 °F 55.9 °F 51% 30.06 in 10.0 mi SW 8.1 mph - N/A   Unknown
2:53 PM 77.0 °F 55.9 °F 48% 30.05 in 10.0 mi South 10.4 mph - N/A   Unknown
3:53 PM 75.9 °F 57.0 °F 52% 30.04 in 10.0 mi SW 8.1 mph - N/A   Unknown
4:53 PM 73.0 °F 55.0 °F 53% 30.03 in 10.0 mi SSE 5.8 mph - N/A   Unknown
5:53 PM 66.9 °F 55.9 °F 68% 30.04 in 10.0 mi SE 5.8 mph - N/A   Unknown
6:53 PM 64.0 °F 55.0 °F 73% 30.05 in 10.0 mi SE 6.9 mph - N/A   Unknown
8:53 PM 61.0 °F 55.0 °F 81% 30.07 in 10.0 mi East 4.6 mph - N/A   Unknown
9:53 PM 61.0 °F 55.0 °F 81% 30.07 in 10.0 mi Calm Calm - N/A   Unknown
10:53 PM 61.0 °F 55.0 °F 81% 30.07 in 10.0 mi Calm Calm - N/A   Unknown
11:53 PM 60.1 °F 54.0 °F 80% 30.06 in 10.0 mi Calm Calm - N/A   Unknown